[[{"header":{"parameterUnit":"m.s-1","parameterCategory":1,"la1":30.2991,"la2":30.254,"lo1":-89.0895,"lo2":-89.0444,"dy":0.0017,"dx":0.0017,"nx":28,"ny":28,"refTime":"2024-07-16T03:00:00:Z","depth":0,"parameterNumber":2,"parameterNumberName":"U-component_of_WINDS"},"data":[0,0,0,0,0,0,0,0,0,0,0,0,0,0,0,0,0,0,0,0,0,0,0,0,0,0,0,0,0,0,0,0,0,0,0,0,0,0,0,0,0,0,0,0,0,0,0,0,0,0,0,0,0,0,0,0,0,0,4.1803,4.1804,0,4.1942,4.1944,4.1946,4.1903,4.19,4.1897,4.1894,4.2035,4.2041,4.2047,0,0,0,0,0,0,0,0,0,0,0,0,0,4.1496,4.1502,4.1803,4.1805,4.1806,4.1942,4.1944,4.1946,4.1903,4.19,4.1896,4.1893,4.2033,4.204,4.2048,0,0,0,0,0,0,0,0,0,0,0,0,0,4.1632,4.1504,4.1803,4.1801,4.1803,4.1942,4.1944,4.1947,4.1904,4.1899,4.1895,4.1891,4.203,4.2039,4.2049,4.2197,0,0,4.2079,4.2083,0,0,0,0,0,0,0,0,4.1624,4.1643,4.18,4.1802,4.1803,4.1901,4.1887,4.203,4.1905,4.1865,4.1894,4.1889,4.1994,4.2006,4.2042,4.2204,4.221,4.208,4.2086,4.209,4.2092,0,0,0,0,0,0,0,4.1615,4.1637,4.1858,4.1802,4.1804,4.1793,4.1807,4.1914,4.1952,4.1868,4.1866,4.1883,4.1994,4.2032,4.2045,4.2212,4.2079,4.2088,4.2094,4.2098,4.2499,4.2504,0,0,0,0,0,0,4.1604,4.1629,4.1854,4.1862,4.1701,4.1802,4.1818,4.1874,4.1951,4.1959,4.1887,4.188,4.2018,4.2033,4.205,4.2225,4.209,4.2099,4.2104,4.2494,4.25,4.2505,0,0,0,0,0,0,4.1598,4.1625,4.1848,4.1745,4.1773,4.1812,4.1875,4.1879,4.1918,4.1965,4.1971,4.1919,4.2015,4.2036,4.216,4.223,4.2103,4.2112,4.2489,4.2496,4.2503,4.258,0,0,0,0,0,0,4.1589,4.1623,4.168,4.1747,4.1778,4.1958,4.1879,4.1885,4.1935,4.1928,4.1997,4.2004,4.2013,4.2146,4.217,4.2241,4.212,4.2483,4.2492,4.2501,4.2571,4.2589,4.2604,0,0,0,0,0,4.1579,4.1697,4.1684,4.1711,4.1851,4.1962,4.198,4.1988,4.1941,4.1998,4.2028,4.2002,4.2219,4.2159,4.2186,4.2261,4.2478,4.2489,4.25,4.2564,4.2585,4.2604,0,0,0,0,0,0,4.1637,4.1705,4.1692,4.1835,4.1893,4.1954,4.2027,4.2011,4.2083,4.2073,4.208,4.2096,4.2223,4.2255,4.2187,4.2406,4.2341,4.2358,4.2381,4.2402,4.2418,4.2406,4.2128,0,0,0,0,0,4.1667,4.1752,4.1807,4.1928,4.1958,4.1988,4.2036,4.2037,4.2097,4.2121,4.2161,4.2219,4.23,4.2353,4.243,4.2576,4.2589,4.2641,4.2657,4.267,4.2684,4.276,4.2783,4.2541,4.2541,4.2541,0,0,4.1729,4.1777,4.183,4.1941,4.1986,4.2072,4.2008,4.2103,4.2166,4.2136,4.2255,4.2286,4.2351,4.2486,4.2548,4.2516,4.2754,4.2684,4.2694,4.2701,4.2774,4.2797,4.2817,4.2548,4.2547,4.2546,0,0,4.1886,4.1932,4.2036,4.2083,4.2152,4.217,4.2195,4.2259,4.2278,4.2399,4.2376,4.2452,4.2592,4.2638,4.268,4.2853,4.2831,4.2879,4.2963,4.3037,4.3056,4.3073,4.3132,4.3153,4.2892,4.2893,4.2893,0,4.1954,4.2084,4.2092,4.2188,4.2236,4.2213,4.2317,4.2362,4.2452,4.2485,4.2449,4.2623,4.2666,4.281,4.2852,4.2888,4.2915,4.2869,4.3053,4.307,4.3086,4.3142,4.3164,4.2898,4.2897,4.2896,4.2896,0,4.2163,4.2253,4.2329,4.2417,4.2474,4.2574,4.2596,4.2652,4.2649,4.2671,4.2792,4.2842,4.2928,4.2963,4.296,4.3106,4.3084,4.3051,4.2985,4.3114,4.3166,4.3188,4.2905,4.2903,4.2901,4.29,0,0,4.2359,4.245,4.2477,4.2515,4.2589,4.2659,4.2757,4.2841,4.2888,4.2952,4.3032,4.3151,4.312,4.3167,4.317,4.3236,4.3366,4.3194,4.3196,4.3222,4.3526,4.3548,4.3573,4.3353,4.3357,4.336,4.3519,0,4.252,4.2693,4.2702,4.2858,4.294,4.2919,4.3004,4.3057,4.3081,4.3153,4.3178,4.326,4.3215,4.3243,4.3308,4.3336,4.3426,4.3325,4.3425,4.3429,4.3407,4.3601,4.3626,4.3773,4.354,4.3544,4.3546,0,4.273,4.2799,4.2964,4.3023,4.3058,4.3135,4.3211,4.3281,4.3341,4.3353,4.3406,4.3399,4.3497,4.343,4.3564,4.3495,4.3537,4.3557,4.3563,4.357,4.3493,4.3611,4.3821,4.3842,4.3579,4.3577,4.3574,0,4.2853,4.2988,4.3103,4.3137,4.321,4.3264,4.3297,4.3353,4.3402,4.3469,4.35,4.3578,4.362,4.3679,4.3692,4.3643,4.3826,4.376,4.3836,4.3836,4.3874,4.387,4.409,4.3906,4.3905,4.3905,4.3904,0,4.303,4.313,4.3158,4.3229,4.334,4.335,4.3459,4.3489,4.3538,4.3612,4.3599,4.3669,4.3684,4.3756,4.3767,4.3875,4.3895,4.3905,4.3907,4.3905,4.3903,4.393,4.3919,4.3911,4.3909,4.3908,4.3907,0,4.3185,4.3209,4.3332,4.3392,4.3409,4.3488,4.3538,4.3605,4.3626,4.372,4.3743,4.3776,4.386,4.388,4.3981,4.3988,4.4115,4.4108,4.4094,4.4093,4.4167,4.4158,4.4409,4.4441,4.4238,4.424,4.4242,0,4.3295,4.3372,4.3439,4.3488,4.3524,4.3603,4.3653,4.3665,4.3717,4.379,4.3847,4.393,4.3997,4.4133,4.4165,4.4241,4.4234,4.4316,4.4245,4.424,4.4231,4.4225,4.4231,4.4329,4.4331,4.4333,4.4335,0,4.3487,4.3494,4.3567,4.3643,4.3703,4.3764,4.3822,4.3863,4.3882,4.3941,4.4027,4.4079,4.4181,4.4263,4.4339,4.4371,4.4356,4.4357,4.4378,4.4376,4.4364,4.4368,4.4128,4.4351,4.4349,4.4348,4.4347,4.4346,4.3621,4.3687,4.3744,4.3825,4.3869,4.3923,4.3988,4.4017,4.409,4.4173,4.4176,4.4269,4.4325,4.4426,4.4463,4.4534,4.4509,4.454,4.4547,4.4554,4.4559,4.4355,4.4549,4.4548,4.4548,4.4548,4.4547,0,4.3809,4.3844,4.3919,4.3999,4.4062,4.4043,4.4106,4.4159,4.4242,4.4295,4.4361,4.4458,4.4537,4.4575,4.4653,4.4702,4.4697,4.4722,4.4717,4.4724,4.4579,4.4552,4.4725,4.4725,4.4725,4.4725,4.4725,4.4725,4.3914,4.4023,4.4037,4.4168,4.4203,4.4294,4.4331,4.438,4.4422,4.4532,4.4597,4.4622,4.4668,4.4749,4.4819,4.4828,4.4856,4.4884,4.4889,4.4753,4.4735,4.4717,4.4691,4.4891,4.4891,4.5027,4.5029,4.503]},{"header":{"parameterUnit":"m.s-1","parameterCategory":1,"la1":30.2991,"la2":30.254,"lo1":-89.0895,"lo2":-89.0444,"dy":0.0017,"dx":0.0017,"nx":28,"ny":28,"refTime":"2024-07-16T03:00:00:Z","depth":0,"parameterNumber":3,"parameterNumberName":"V-component_of_WINDS"},"data":[0,0,0,0,0,0,0,0,0,0,0,0,0,0,0,0,0,0,0,0,0,0,0,0,0,0,0,0,0,0,0,0,0,0,0,0,0,0,0,0,0,0,0,0,0,0,0,0,0,0,0,0,0,0,0,0,0,0,0.9067,0.9067,0,0.9102,0.9102,0.9102,0.9078,0.9077,0.9076,0.9074,0.9113,0.9115,0.9117,0,0,0,0,0,0,0,0,0,0,0,0,0,0.898,0.8981,0.9067,0.9067,0.9067,0.9101,0.9102,0.9102,0.9078,0.9077,0.9075,0.9074,0.9113,0.9115,0.9117,0,0,0,0,0,0,0,0,0,0,0,0,0,0.9016,0.8982,0.9066,0.9059,0.9059,0.9101,0.9102,0.9103,0.9078,0.9077,0.9075,0.9073,0.9112,0.9115,0.9118,0.917,0,0,0.9127,0.9129,0,0,0,0,0,0,0,0,0.9014,0.902,0.906,0.906,0.9059,0.9083,0.9086,0.9125,0.9079,0.9071,0.9074,0.9073,0.9105,0.9108,0.9119,0.9172,0.9174,0.9128,0.9129,0.9131,0.9132,0,0,0,0,0,0,0,0.9012,0.9018,0.908,0.906,0.906,0.9055,0.9058,0.9093,0.9097,0.9072,0.907,0.9074,0.9104,0.9116,0.9119,0.9174,0.9127,0.913,0.9132,0.9133,0.9271,0.9272,0,0,0,0,0,0,0.901,0.9016,0.9079,0.9082,0.9032,0.9058,0.9061,0.9078,0.9096,0.9098,0.9076,0.9073,0.9111,0.9116,0.9121,0.9182,0.9131,0.9134,0.9135,0.9269,0.9271,0.9273,0,0,0,0,0,0,0.9008,0.9016,0.9078,0.9048,0.9056,0.9061,0.9079,0.9079,0.909,0.9099,0.91,0.9086,0.911,0.9116,0.9158,0.9183,0.9135,0.9138,0.9267,0.927,0.9272,0.9307,0,0,0,0,0,0,0.9006,0.9015,0.9035,0.9049,0.9057,0.9114,0.9081,0.9081,0.9095,0.9092,0.911,0.9111,0.9109,0.9153,0.9161,0.9187,0.914,0.9265,0.9268,0.9271,0.9304,0.9311,0.9316,0,0,0,0,0,0.9003,0.9044,0.9036,0.9044,0.9082,0.9116,0.912,0.9117,0.9098,0.9118,0.9123,0.9111,0.9179,0.9157,0.9166,0.9193,0.9263,0.9267,0.9271,0.9301,0.9309,0.9316,0,0,0,0,0,0,0.9035,0.9046,0.9037,0.9085,0.9099,0.9111,0.9137,0.9126,0.9147,0.9144,0.9139,0.9143,0.9186,0.9194,0.9169,0.9244,0.9218,0.9224,0.9238,0.9246,0.9252,0.925,0.9143,0,0,0,0,0,0.9047,0.9073,0.9081,0.9122,0.913,0.9132,0.9146,0.9142,0.9157,0.9164,0.9172,0.9188,0.9213,0.923,0.9254,0.9304,0.9307,0.9327,0.9334,0.9339,0.9344,0.937,0.9379,0.9286,0.9286,0.9286,0,0,0.9074,0.9083,0.91,0.9129,0.914,0.9166,0.9137,0.9167,0.9187,0.9169,0.9207,0.9214,0.9232,0.9277,0.9298,0.9285,0.937,0.9344,0.9348,0.9351,0.9376,0.9384,0.9392,0.9289,0.9289,0.9288,0,0,0.9135,0.9145,0.9179,0.919,0.9206,0.9207,0.9215,0.9229,0.9232,0.9271,0.9257,0.928,0.9324,0.9336,0.9348,0.9412,0.9401,0.942,0.9454,0.948,0.9487,0.9494,0.9516,0.9524,0.9425,0.9426,0.9426,0,0.9166,0.9205,0.9199,0.9229,0.9242,0.9225,0.926,0.9271,0.9294,0.9304,0.9289,0.9342,0.9352,0.94,0.9416,0.9426,0.9435,0.9419,0.9487,0.9493,0.9499,0.952,0.9529,0.9428,0.9427,0.9427,0.9427,0,0.9242,0.927,0.9296,0.9317,0.9333,0.9366,0.9364,0.9381,0.9375,0.9377,0.9416,0.9428,0.9453,0.9464,0.9459,0.9511,0.9502,0.9487,0.9461,0.951,0.953,0.9538,0.9431,0.943,0.9429,0.9429,0,0,0.9327,0.9342,0.9352,0.9361,0.9377,0.9398,0.9429,0.9452,0.9467,0.9483,0.9509,0.9545,0.953,0.9544,0.954,0.9563,0.9612,0.9544,0.9545,0.9556,0.9669,0.968,0.969,0.9604,0.9605,0.9607,0.9667,0,0.9389,0.9443,0.9437,0.9488,0.9513,0.9496,0.9523,0.9536,0.9538,0.956,0.9563,0.9588,0.9567,0.9575,0.9596,0.9601,0.9634,0.9597,0.9628,0.963,0.9625,0.97,0.9713,0.9769,0.9675,0.9676,0.9677,0,0.9469,0.9486,0.954,0.955,0.956,0.9584,0.9604,0.9625,0.9639,0.9639,0.9653,0.9644,0.9676,0.9648,0.9691,0.9666,0.9678,0.9682,0.9684,0.9688,0.9657,0.9705,0.9787,0.9796,0.9689,0.9688,0.9688,0,0.9525,0.9561,0.9598,0.9606,0.9619,0.9636,0.9643,0.9654,0.9668,0.9686,0.9694,0.9716,0.9728,0.9745,0.9742,0.9722,0.9786,0.9758,0.9787,0.9787,0.9802,0.9801,0.9887,0.981,0.981,0.9809,0.9809,0,0.9595,0.9628,0.9623,0.9645,0.9682,0.9674,0.9711,0.9715,0.9725,0.9748,0.9735,0.9757,0.9752,0.9774,0.9772,0.9808,0.9814,0.9815,0.9814,0.9816,0.9816,0.9825,0.9821,0.9812,0.9811,0.9811,0.981,0,0.9663,0.9661,0.97,0.9708,0.9711,0.9737,0.9744,0.9765,0.9766,0.9795,0.9802,0.9803,0.9828,0.9827,0.9855,0.9854,0.9898,0.9892,0.9893,0.9892,0.9921,0.9918,1.0015,1.0028,0.9942,0.9943,0.9944,0,0.9708,0.9733,0.9744,0.9757,0.9764,0.9787,0.98,0.9794,0.9809,0.9825,0.9844,0.9867,0.9885,0.9926,0.993,0.9951,0.9946,0.9979,0.995,0.995,0.9947,0.9945,0.9947,0.9985,0.9986,0.9987,0.9987,0,0.9788,0.9785,0.9805,0.9823,0.9839,0.9854,0.9867,0.988,0.9874,0.9892,0.9916,0.993,0.9958,0.9981,1.0001,1.0008,0.9997,0.9996,1.0004,1.0007,1.0006,1.0006,0.9909,0.9994,0.9994,0.9993,0.9993,0.9993,0.9846,0.9867,0.9877,0.9899,0.9908,0.992,0.994,0.9942,0.9962,0.9984,0.9978,1.0006,1.0018,1.0043,1.0052,1.0073,1.0062,1.0073,1.0076,1.0079,1.0082,1.0002,1.0077,1.0077,1.0076,1.0076,1.0076,0,0.9925,0.993,0.995,0.9968,0.9985,0.9971,0.9985,1.0,1.0024,1.0035,1.0053,1.0081,1.0103,1.0107,1.0128,1.0145,1.014,1.015,1.0149,1.0151,1.0091,1.0082,1.0154,1.0154,1.0154,1.0154,1.0154,1.0154,0.9968,1.0002,1.0,1.0038,1.0043,1.0069,1.0078,1.0089,1.0098,1.0129,1.0147,1.0149,1.0158,1.0179,1.0198,1.0199,1.0207,1.022,1.0219,1.0163,1.0155,1.0148,1.0139,1.0222,1.0222,1.0277,1.0277,1.0277]}]]